Location: Amsterdam
(30.7274°N, 84.4357°W)
Time: 07:43:55
(UTC+00:00)

Vanguard 1 Rocket - Visible Passes

Search period start: 16 February 2026 00:00
Search period end: 26 February 2026 00:00
Orbit: 652 x 4215 km, 34.3° (Epoch: 12 February)

Date Brightness Start Highest point End Pass type
(mag) Time Alt. Az. Time Alt. Az. Time Alt. Az.
16 Feb 10.7 00:53:12 10° WNW 01:14:42 70° SSW 01:37:40 15° SE visible
16 Feb 11.2 03:25:31 10° W 03:45:58 33° SW 03:54:56 26° SSW visible
16 Feb 10.6 23:39:13 10° WNW 23:58:05 83° SSW 00:24:45 10° ESE visible
17 Feb 11.0 02:08:42 10° WNW 02:30:29 47° SW 02:47:43 21° SSE visible
17 Feb 11.6 04:50:00 10° WSW 05:00:13 14° SW 05:05:00 13° SW visible
18 Feb 10.8 00:53:39 10° WNW 01:14:21 62° SSW 01:39:31 10° SE visible
18 Feb 11.4 03:27:01 10° W 03:45:21 26° SW 03:57:53 17° S visible
18 Feb 10.7 23:39:42 10° WNW 23:58:01 76° SSW 00:24:27 10° SE visible
19 Feb 11.2 02:09:28 10° WNW 02:29:56 40° SW 02:50:54 12° SSE visible
20 Feb 11.0 00:54:12 10° WNW 01:14:00 54° SW 01:38:41 10° SE visible
20 Feb 11.7 03:29:20 10° W 03:44:52 20° SW 04:00:12 10° S visible
20 Feb 10.8 23:40:14 10° WNW 23:57:54 68° SSW 00:23:55 10° SE visible
21 Feb 11.5 02:10:36 10° W 02:29:28 33° SW 02:50:08 10° SSE visible
22 Feb 11.2 00:54:55 10° WNW 01:13:41 46° SW 01:37:31 10° SSE visible
22 Feb 11.8 03:33:16 10° WSW 03:44:36 15° SW 03:56:00 10° SSW visible
22 Feb 10.9 23:40:49 10° WNW 23:57:47 60° SSW 00:23:08 10° SE visible
23 Feb 11.7 02:12:13 10° W 02:29:07 26° SW 02:47:56 10° S visible
24 Feb 11.4 00:55:52 10° W 01:13:26 39° SW 01:36:00 10° SSE visible
24 Feb 11.1 23:41:30 10° WNW 23:57:42 52° SSW 00:22:03 10° SE visible
25 Feb 11.8 02:14:41 10° W 02:28:58 20° SW 02:44:53 10° S visible
